Simultaneous Nadir Overpasses (SNOs) Predictions

Prediction of SNOs between GOES-14 and NOAA-20 Satellite Orbit:

Table of predicted SNOs for the next 14.0 days since TLE Epoch: 6/7/2019
Index Date Time (GOES-14) GOES-14 Lat,Lon NOAA-20 Lat,Lon Distance(km) Time Diff (sec)
1 06/08/2019 08:14:10 0.02,-104.45 -0.55,-102.07 272.77 80
2 06/09/2019 20:33:26 0.01,-104.59 -0.60,-107.38 317.33 80
3 06/10/2019 20:17:21 -0.00,-104.59 0.39,-102.84 199.93 80
4 06/12/2019 08:36:28 -0.02,-104.47 0.78,-108.11 414.66 80
5 06/13/2019 08:20:22 -0.01,-104.48 -0.21,-103.57 103.13 80
6 06/14/2019 20:39:39 0.04,-104.63 -0.93,-108.89 485.75 80
7 06/15/2019 20:23:34 0.03,-104.63 0.12,-104.36 31.71 80
8 06/18/2019 08:23:56 -0.05,-104.51 0.06,-105.09 66.16 80
9 06/19/2019 08:07:51 -0.03,-104.52 -0.93,-100.56 451.74 80
10 06/20/2019 20:27:07 0.06,-104.67 -0.20,-105.87 136.58 80




NCC Satellite Simultaneous Nadir Overpasses (SNOs) Prediction Service
